NDF72A EDDM-LGAV

Flight info

Callsign NDF72A
Flight time 1h 59m
Altitude 35000
Route VAVOR4N VAVOR M867 RADIZ DCT REKTI DCT NEMEK DCT ELTIB DCT PINDO DCT PIKOS UL607 XORKI XORKI1Q
Aircraft A320/M-SDE3FGHIRWY/LB1

Departure

Time 2026-05-06 20:45
Airport Munich Airport (EDDM)

Arrival

Time 2026-05-06 22:45
Airport Athens Eleftherios Venizelos International Airport (LGAV)
Time Latitude Longitude Altitude Speed Heading
2026-05-06 20:25 48.35657 11.79713 1486 ft 0 kts 83°
2026-05-06 20:35 48.35654 11.79678 1471 ft 4 kts 80°
2026-05-06 20:35 48.35649 11.79638 1473 ft 4 kts 74°
2026-05-06 20:35 48.35640 11.79601 1474 ft 4 kts 64°
2026-05-06 20:35 48.35626 11.79569 1477 ft 4 kts 27°
2026-05-06 20:36 48.35615 11.79563 1473 ft 0 kts 353°
2026-05-06 20:38 48.35649 11.79557 1480 ft 7 kts 353°
2026-05-06 20:38 48.35702 11.79548 1481 ft 12 kts 353°
2026-05-06 20:38 48.35818 11.79528 1481 ft 18 kts 353°
2026-05-06 20:39 48.35946 11.79505 1485 ft 19 kts 353°
2026-05-06 20:39 48.36080 11.79481 1480 ft 20 kts 353°
2026-05-06 20:39 48.36207 11.79500 1485 ft 18 kts 57°
2026-05-06 20:39 48.36231 11.79690 1485 ft 19 kts 84°
2026-05-06 20:40 48.36245 11.79888 1485 ft 20 kts 83°
2026-05-06 20:40 48.36263 11.80096 1485 ft 20 kts 81°
2026-05-06 20:40 48.36279 11.80312 1475 ft 21 kts 84°
2026-05-06 20:40 48.36295 11.80536 1475 ft 22 kts 83°
2026-05-06 20:41 48.36314 11.80770 1481 ft 23 kts 83°
2026-05-06 20:41 48.36334 11.81011 1485 ft 24 kts 83°
2026-05-06 20:41 48.36354 11.81271 1480 ft 27 kts 83°
2026-05-06 20:41 48.36376 11.81553 1476 ft 27 kts 85°
2026-05-06 20:42 48.36395 11.81834 1482 ft 26 kts 83°
2026-05-06 20:42 48.36423 11.81996 1482 ft 14 kts 25°
2026-05-06 20:42 48.36518 11.81990 1473 ft 13 kts 353°
2026-05-06 20:42 48.36559 11.81983 1480 ft 0 kts 353°
2026-05-06 20:43 48.36590 11.81977 1482 ft 14 kts 353°
2026-05-06 20:43 48.36669 11.81888 1478 ft 16 kts 271°
2026-05-06 20:44 48.36667 11.81859 1475 ft 0 kts 263°
2026-05-06 20:44 48.36650 11.81631 1485 ft 57 kts 263°
2026-05-06 20:44 48.36581 11.80702 1473 ft 118 kts 264°
2026-05-06 20:44 48.36467 11.79227 1485 ft 163 kts 263°
2026-05-06 20:45 48.36337 11.77418 1860 ft 174 kts 264°
2026-05-06 20:45 48.36231 11.75617 2524 ft 173 kts 265°
2026-05-06 20:45 48.36143 11.73835 3163 ft 174 kts 265°
2026-05-06 20:45 48.35850 11.72095 3778 ft 174 kts 231°
2026-05-06 20:46 48.34835 11.71193 4357 ft 175 kts 191°
2026-05-06 20:46 48.33597 11.71018 4819 ft 183 kts 183°
2026-05-06 20:46 48.32248 11.70942 5009 ft 205 kts 181°
2026-05-06 20:46 48.30784 11.71406 5168 ft 230 kts 153°
2026-05-06 20:47 48.29321 11.72653 5445 ft 254 kts 151°
2026-05-06 20:47 48.27706 11.73966 5886 ft 271 kts 152°
2026-05-06 20:47 48.26017 11.75302 6616 ft 276 kts 153°
2026-05-06 20:47 48.24303 11.76655 7395 ft 280 kts 152°
2026-05-06 20:48 48.22692 11.78306 8146 ft 284 kts 140°
2026-05-06 20:48 48.21178 11.80237 8911 ft 287 kts 140°
2026-05-06 20:48 48.19650 11.82189 9654 ft 290 kts 140°
2026-05-06 20:48 48.18103 11.84165 10292 ft 298 kts 140°
2026-05-06 20:49 48.16462 11.86252 10496 ft 321 kts 140°
2026-05-06 20:49 48.14697 11.88496 10663 ft 343 kts 140°
2026-05-06 20:49 48.12850 11.90844 11173 ft 352 kts 140°
2026-05-06 20:49 48.10973 11.93232 11816 ft 356 kts 140°
2026-05-06 20:50 48.09075 11.95649 12473 ft 360 kts 140°
2026-05-06 20:50 48.07157 11.98090 13111 ft 364 kts 140°
2026-05-06 20:50 48.05222 12.00550 13741 ft 367 kts 140°
2026-05-06 20:50 48.03268 12.03025 14346 ft 370 kts 140°
2026-05-06 20:51 48.01295 12.05517 14948 ft 373 kts 140°
2026-05-06 20:51 47.99303 12.08029 15532 ft 376 kts 140°
2026-05-06 20:51 47.97322 12.10525 16099 ft 379 kts 140°
2026-05-06 20:51 47.95269 12.13114 16655 ft 383 kts 140°
2026-05-06 20:52 47.93225 12.15687 17201 ft 386 kts 140°
2026-05-06 20:52 47.91197 12.18235 17726 ft 389 kts 140°
2026-05-06 20:52 47.89120 12.20842 18252 ft 392 kts 140°
2026-05-06 20:52 47.87028 12.23472 18766 ft 395 kts 140°
2026-05-06 20:53 47.84920 12.26123 19281 ft 398 kts 140°
2026-05-06 20:53 47.82796 12.28793 19779 ft 401 kts 140°
2026-05-06 20:53 47.80653 12.31484 20273 ft 404 kts 140°
2026-05-06 20:53 47.78497 12.34189 20753 ft 407 kts 140°
2026-05-06 20:54 47.76316 12.36921 21189 ft 412 kts 140°
2026-05-06 20:54 47.74117 12.39670 21598 ft 415 kts 140°
2026-05-06 20:54 47.71899 12.42435 22088 ft 417 kts 140°
2026-05-06 20:54 47.69666 12.45206 22495 ft 420 kts 140°
2026-05-06 20:55 47.67410 12.47983 22897 ft 422 kts 140°
2026-05-06 20:55 47.65141 12.50766 23307 ft 425 kts 140°
2026-05-06 20:55 47.62856 12.53574 23643 ft 429 kts 140°
2026-05-06 20:55 47.60570 12.56452 23992 ft 432 kts 139°
2026-05-06 20:56 47.58317 12.59422 24366 ft 434 kts 138°
2026-05-06 20:56 47.56090 12.62439 24739 ft 436 kts 137°
2026-05-06 20:56 47.53850 12.65501 24968 ft 441 kts 137°
2026-05-06 20:56 47.51588 12.68585 25297 ft 442 kts 137°
2026-05-06 20:57 47.49318 12.71654 25689 ft 443 kts 138°
2026-05-06 20:57 47.47025 12.74726 25865 ft 448 kts 138°
2026-05-06 20:57 47.44707 12.77807 26241 ft 448 kts 138°
2026-05-06 20:57 47.42418 12.80830 26615 ft 448 kts 138°
2026-05-06 20:58 47.40093 12.83897 26934 ft 449 kts 138°
2026-05-06 20:58 47.37763 12.86969 27209 ft 451 kts 138°
2026-05-06 20:58 47.35411 12.90073 27418 ft 455 kts 138°
2026-05-06 20:58 47.33044 12.93197 27631 ft 458 kts 138°
2026-05-06 20:59 47.30665 12.96336 27884 ft 460 kts 138°
2026-05-06 20:59 47.28281 12.99478 28211 ft 460 kts 138°
2026-05-06 20:59 47.25892 13.02623 28416 ft 463 kts 138°
2026-05-06 20:59 47.23484 13.05793 28582 ft 466 kts 138°
2026-05-06 21:00 47.21062 13.08977 28800 ft 467 kts 138°
2026-05-06 21:00 47.18642 13.12150 29102 ft 467 kts 138°
2026-05-06 21:00 47.16208 13.15331 29254 ft 470 kts 138°
2026-05-06 21:00 47.13757 13.18531 29384 ft 472 kts 139°
2026-05-06 21:01 47.11297 13.21739 29536 ft 474 kts 139°
2026-05-06 21:01 47.08829 13.24955 29727 ft 476 kts 139°
2026-05-06 21:01 47.06349 13.28183 29873 ft 477 kts 139°
2026-05-06 21:01 47.03865 13.31413 30070 ft 477 kts 139°
2026-05-06 21:02 47.01378 13.34639 30222 ft 478 kts 139°
2026-05-06 21:02 46.98889 13.37867 30406 ft 478 kts 139°
2026-05-06 21:02 46.96414 13.41072 30819 ft 472 kts 139°
2026-05-06 21:02 46.93952 13.44258 31003 ft 473 kts 139°
2026-05-06 21:03 46.91484 13.47450 31244 ft 472 kts 139°
2026-05-06 21:03 46.89038 13.50614 31622 ft 468 kts 139°
2026-05-06 21:03 46.86603 13.53752 31958 ft 465 kts 139°
2026-05-06 21:03 46.84171 13.56878 32164 ft 466 kts 139°
2026-05-06 21:04 46.81764 13.59972 32380 ft 466 kts 139°
2026-05-06 21:04 46.79333 13.63096 32671 ft 465 kts 139°
2026-05-06 21:04 46.76910 13.66205 32974 ft 462 kts 139°
2026-05-06 21:04 46.74494 13.69300 33202 ft 463 kts 139°
2026-05-06 21:05 46.72075 13.72399 33403 ft 463 kts 139°
2026-05-06 21:05 46.69656 13.75493 33586 ft 464 kts 139°
2026-05-06 21:05 46.67224 13.78597 33813 ft 464 kts 139°
2026-05-06 21:05 46.64807 13.81682 34116 ft 461 kts 139°
2026-05-06 21:06 46.62400 13.84744 34402 ft 459 kts 139°
2026-05-06 21:06 46.60002 13.87786 34666 ft 457 kts 139°
2026-05-06 21:06 46.57618 13.90828 34881 ft 456 kts 138°
2026-05-06 21:06 46.55286 13.93975 34999 ft 458 kts 136°
2026-05-06 21:07 46.52998 13.97227 35012 ft 462 kts 135°
2026-05-06 21:07 46.48434 14.03898 35006 ft 469 kts 135°
2026-05-06 21:08 46.43778 14.10618 35008 ft 474 kts 135°
2026-05-06 21:08 46.39033 14.17314 35007 ft 477 kts 136°
2026-05-06 21:09 46.34250 14.24009 35007 ft 478 kts 136°
2026-05-06 21:09 46.29472 14.30691 35009 ft 477 kts 136°
2026-05-06 21:10 46.24701 14.37366 35008 ft 477 kts 136°
2026-05-06 21:10 46.19967 14.43997 35012 ft 477 kts 136°
2026-05-06 21:11 46.15200 14.50665 35016 ft 477 kts 136°
2026-05-06 21:11 46.10417 14.57314 35019 ft 478 kts 136°
2026-05-06 21:12 46.05624 14.63931 35022 ft 477 kts 136°
2026-05-06 21:12 46.00831 14.70547 35016 ft 477 kts 136°
2026-05-06 21:13 45.96038 14.77166 35016 ft 478 kts 136°
2026-05-06 21:13 45.91241 14.83770 35017 ft 478 kts 136°
2026-05-06 21:14 45.86443 14.90363 35017 ft 477 kts 136°
2026-05-06 21:14 45.81641 14.96934 35019 ft 477 kts 136°
2026-05-06 21:15 45.76838 15.03494 35019 ft 477 kts 136°
2026-05-06 21:15 45.72037 15.10050 35021 ft 477 kts 136°
2026-05-06 21:16 45.67234 15.16582 35017 ft 477 kts 136°
2026-05-06 21:16 45.62423 15.23102 35017 ft 476 kts 136°
2026-05-06 21:17 45.57648 15.29556 35022 ft 476 kts 137°
2026-05-06 21:17 45.52715 15.35864 35013 ft 476 kts 139°
2026-05-06 21:18 45.47657 15.41954 35012 ft 476 kts 140°
2026-05-06 21:18 45.42588 15.48023 35015 ft 476 kts 140°
2026-05-06 21:19 45.37558 15.54140 35015 ft 476 kts 139°
2026-05-06 21:19 45.32546 15.60278 35015 ft 475 kts 139°
2026-05-06 21:20 45.27529 15.66398 35018 ft 475 kts 140°
2026-05-06 21:20 45.22496 15.72494 35012 ft 476 kts 140°
2026-05-06 21:21 45.17461 15.78572 35018 ft 475 kts 140°
2026-05-06 21:21 45.12424 15.84648 35013 ft 476 kts 140°
2026-05-06 21:22 45.08233 15.89694 35013 ft 476 kts 140°
2026-05-06 21:22 45.03190 15.95746 35009 ft 476 kts 140°
2026-05-06 21:23 44.97318 16.02782 35009 ft 476 kts 140°
2026-05-06 21:23 44.92259 16.08825 35002 ft 476 kts 140°
2026-05-06 21:24 44.88019 16.13876 35003 ft 476 kts 140°
2026-05-06 21:24 44.82990 16.19854 35009 ft 476 kts 140°
2026-05-06 21:25 44.77921 16.25863 35006 ft 476 kts 140°
2026-05-06 21:25 44.72852 16.31874 34999 ft 477 kts 140°
2026-05-06 21:26 44.67758 16.37896 34985 ft 479 kts 140°
2026-05-06 21:26 44.62643 16.43917 34989 ft 480 kts 140°
2026-05-06 21:27 44.57515 16.49949 34999 ft 481 kts 140°
2026-05-06 21:27 44.52391 16.55973 35005 ft 481 kts 140°
2026-05-06 21:28 44.47256 16.61986 35013 ft 481 kts 140°
2026-05-06 21:28 44.42111 16.67978 35013 ft 481 kts 140°
2026-05-06 21:29 44.36959 16.73980 35009 ft 482 kts 140°
2026-05-06 21:29 44.31837 16.79927 35012 ft 482 kts 140°
2026-05-06 21:30 44.26692 16.85922 35017 ft 481 kts 140°
2026-05-06 21:30 44.21569 16.91942 35012 ft 482 kts 140°
2026-05-06 21:31 44.16435 16.97963 35009 ft 483 kts 140°
2026-05-06 21:31 44.11287 17.03969 34996 ft 483 kts 140°
2026-05-06 21:32 44.06118 17.09963 35000 ft 484 kts 140°
2026-05-06 21:32 43.98372 17.18953 35020 ft 484 kts 140°
2026-05-06 21:33 43.93208 17.24940 35021 ft 483 kts 140°
2026-05-06 21:33 43.88048 17.30903 35020 ft 483 kts 140°
2026-05-06 21:34 43.82876 17.36853 35021 ft 483 kts 140°
2026-05-06 21:34 43.77700 17.42779 35013 ft 483 kts 140°
2026-05-06 21:35 43.72549 17.48674 35019 ft 484 kts 140°
2026-05-06 21:35 43.67369 17.54605 35015 ft 484 kts 140°
2026-05-06 21:36 43.62182 17.60528 35014 ft 484 kts 140°
2026-05-06 21:36 43.56986 17.66445 35005 ft 485 kts 140°
2026-05-06 21:37 43.51785 17.72358 35016 ft 481 kts 141°
2026-05-06 21:37 43.46648 17.78166 35007 ft 478 kts 141°
2026-05-06 21:38 43.41500 17.83986 35007 ft 478 kts 141°
2026-05-06 21:38 43.36364 17.89770 35005 ft 477 kts 141°
2026-05-06 21:39 43.31246 17.95520 35012 ft 480 kts 141°
2026-05-06 21:39 43.26075 18.01332 35015 ft 481 kts 141°
2026-05-06 21:40 43.20896 18.07135 35006 ft 481 kts 141°
2026-05-06 21:40 43.15716 18.12933 35012 ft 481 kts 141°
2026-05-06 21:41 43.10529 18.18728 35011 ft 481 kts 141°
2026-05-06 21:41 43.05345 18.24504 35023 ft 479 kts 141°
2026-05-06 21:42 43.00179 18.30232 35006 ft 478 kts 141°
2026-05-06 21:42 42.94992 18.35950 35011 ft 480 kts 141°
2026-05-06 21:43 42.89809 18.41675 35007 ft 479 kts 141°
2026-05-06 21:43 42.84675 18.47351 35008 ft 479 kts 141°
2026-05-06 21:44 42.79489 18.53064 35014 ft 480 kts 141°
2026-05-06 21:44 42.74286 18.58771 35011 ft 480 kts 141°
2026-05-06 21:45 42.69073 18.64462 35007 ft 481 kts 141°
2026-05-06 21:45 42.63856 18.70153 35010 ft 480 kts 141°
2026-05-06 21:46 42.58658 18.75829 35011 ft 479 kts 141°
2026-05-06 21:46 42.53466 18.81489 35008 ft 480 kts 141°
2026-05-06 21:47 42.48257 18.87160 35018 ft 480 kts 141°
2026-05-06 21:47 42.43037 18.92809 35017 ft 481 kts 141°
2026-05-06 21:48 42.37844 18.98409 35021 ft 480 kts 141°
2026-05-06 21:48 42.32623 19.04028 35032 ft 479 kts 141°
2026-05-06 21:49 42.27419 19.09624 35033 ft 477 kts 141°
2026-05-06 21:49 42.22232 19.15195 35032 ft 476 kts 141°
2026-05-06 21:50 42.17050 19.20758 35025 ft 476 kts 142°
2026-05-06 21:50 42.11871 19.26297 35025 ft 475 kts 142°
2026-05-06 21:51 42.06689 19.31828 35014 ft 476 kts 142°
2026-05-06 21:51 42.01497 19.37353 35007 ft 475 kts 142°
2026-05-06 21:52 41.96353 19.42824 35014 ft 474 kts 142°
2026-05-06 21:52 41.91178 19.48315 35007 ft 474 kts 142°
2026-05-06 21:53 41.85992 19.53784 35004 ft 474 kts 142°
2026-05-06 21:53 41.80805 19.59250 34999 ft 475 kts 142°
2026-05-06 21:54 41.75619 19.64719 35011 ft 474 kts 142°
2026-05-06 21:54 41.70438 19.70173 35010 ft 474 kts 142°
2026-05-06 21:55 41.65239 19.75623 35006 ft 476 kts 142°
2026-05-06 21:55 41.60027 19.81089 35011 ft 477 kts 142°
2026-05-06 21:56 41.54786 19.86574 34994 ft 480 kts 142°
2026-05-06 21:56 41.49519 19.92075 34998 ft 481 kts 142°
2026-05-06 21:57 41.44238 19.97555 35009 ft 481 kts 142°
2026-05-06 21:57 41.38962 20.03028 35004 ft 481 kts 142°
2026-05-06 21:58 41.33671 20.08506 34997 ft 482 kts 142°
2026-05-06 21:58 41.28377 20.13971 35003 ft 482 kts 142°
2026-05-06 21:59 41.23119 20.19386 35013 ft 481 kts 142°
2026-05-06 21:59 41.17829 20.24827 35015 ft 481 kts 142°
2026-05-06 22:00 41.12547 20.30262 35016 ft 480 kts 142°
2026-05-06 22:00 41.07254 20.35687 34993 ft 482 kts 142°
2026-05-06 22:01 41.01936 20.41121 35000 ft 483 kts 142°
2026-05-06 22:01 40.96634 20.46525 35007 ft 481 kts 142°
2026-05-06 22:02 40.91339 20.51920 35007 ft 480 kts 142°
2026-05-06 22:02 40.86042 20.57325 35010 ft 482 kts 142°
2026-05-06 22:03 40.80720 20.62734 35006 ft 483 kts 142°
2026-05-06 22:03 40.75389 20.68127 35011 ft 483 kts 143°
2026-05-06 22:04 40.70055 20.73500 35024 ft 482 kts 143°
2026-05-06 22:04 40.64761 20.78821 35029 ft 482 kts 143°
2026-05-06 22:05 40.59439 20.84180 35019 ft 482 kts 142°
2026-05-06 22:05 40.54109 20.89548 35011 ft 483 kts 143°
2026-05-06 22:06 40.48770 20.94892 35021 ft 482 kts 143°
2026-05-06 22:06 40.43571 21.00464 35012 ft 483 kts 139°
2026-05-06 22:07 40.38589 21.06364 35015 ft 482 kts 137°
2026-05-06 22:07 40.33629 21.12270 35009 ft 481 kts 138°
2026-05-06 22:08 40.28608 21.18074 35011 ft 481 kts 139°
2026-05-06 22:08 40.23596 21.23785 35011 ft 480 kts 139°
2026-05-06 22:09 40.18563 21.29523 35016 ft 480 kts 139°
2026-05-06 22:09 40.13527 21.35271 35019 ft 480 kts 139°
2026-05-06 22:10 40.08491 21.41004 35023 ft 480 kts 139°
2026-05-06 22:10 40.03449 21.46725 35026 ft 479 kts 139°
2026-05-06 22:11 39.98418 21.52430 35023 ft 479 kts 139°
2026-05-06 22:11 39.93384 21.58129 35020 ft 479 kts 139°
2026-05-06 22:12 39.88351 21.63819 35023 ft 479 kts 139°
2026-05-06 22:12 39.83322 21.69501 35020 ft 479 kts 139°
2026-05-06 22:13 39.78290 21.75162 35018 ft 479 kts 139°
2026-05-06 22:13 39.73244 21.80813 35013 ft 479 kts 139°
2026-05-06 22:14 39.68199 21.86456 35017 ft 479 kts 139°
2026-05-06 22:14 39.63161 21.92097 35024 ft 478 kts 139°
2026-05-06 22:15 39.58168 21.97686 35028 ft 477 kts 139°
2026-05-06 22:15 39.53141 22.03285 35028 ft 476 kts 139°
2026-05-06 22:16 39.48113 22.08855 35026 ft 476 kts 140°
2026-05-06 22:16 39.43091 22.14429 35023 ft 475 kts 139°
2026-05-06 22:17 39.38076 22.19987 35006 ft 475 kts 140°
2026-05-06 22:17 39.33057 22.25541 35010 ft 475 kts 140°
2026-05-06 22:18 39.28040 22.31084 35012 ft 475 kts 140°
2026-05-06 22:18 39.23047 22.36574 35008 ft 462 kts 140°
2026-05-06 22:19 39.18195 22.41909 35007 ft 457 kts 140°
2026-05-06 22:19 39.14186 22.46309 35010 ft 455 kts 140°
2026-05-06 22:20 39.09367 22.51591 35012 ft 455 kts 140°
2026-05-06 22:20 39.04538 22.56869 35006 ft 457 kts 140°
2026-05-06 22:21 38.99678 22.62169 35010 ft 458 kts 140°
2026-05-06 22:21 38.94810 22.67462 35020 ft 458 kts 140°
2026-05-06 22:22 38.89956 22.72735 34824 ft 455 kts 140°
2026-05-06 22:22 38.87546 22.75352 34578 ft 453 kts 140°
2026-05-06 22:22 38.85146 22.77959 34328 ft 452 kts 140°
2026-05-06 22:23 38.82743 22.80564 34078 ft 452 kts 140°
2026-05-06 22:23 38.80367 22.83134 33504 ft 454 kts 140°
2026-05-06 22:23 38.77931 22.85765 32454 ft 460 kts 140°
2026-05-06 22:23 38.75479 22.88416 31411 ft 464 kts 140°
2026-05-06 22:24 38.73000 22.91091 30440 ft 466 kts 140°
2026-05-06 22:24 38.70537 22.93751 29847 ft 460 kts 140°
2026-05-06 22:24 38.68104 22.96379 29179 ft 455 kts 140°
2026-05-06 22:24 38.65695 22.98978 28534 ft 451 kts 140°
2026-05-06 22:25 38.63309 23.01548 27907 ft 446 kts 140°
2026-05-06 22:25 38.60946 23.04087 27276 ft 442 kts 140°
2026-05-06 22:25 38.58602 23.06605 26654 ft 438 kts 140°
2026-05-06 22:25 38.56279 23.09092 26036 ft 434 kts 140°
2026-05-06 22:26 38.53971 23.11557 25439 ft 430 kts 140°
2026-05-06 22:26 38.51686 23.14000 24835 ft 426 kts 140°
2026-05-06 22:26 38.49426 23.16415 24252 ft 422 kts 140°
2026-05-06 22:26 38.47188 23.18807 23685 ft 417 kts 140°
2026-05-06 22:27 38.44973 23.21175 23147 ft 413 kts 140°
2026-05-06 22:27 38.42780 23.23516 22619 ft 409 kts 140°
2026-05-06 22:27 38.40637 23.25801 22142 ft 405 kts 140°
2026-05-06 22:27 38.38488 23.28091 21657 ft 401 kts 140°
2026-05-06 22:28 38.36359 23.30358 21166 ft 397 kts 140°
2026-05-06 22:28 38.34245 23.32605 20712 ft 394 kts 140°
2026-05-06 22:28 38.32153 23.34825 20236 ft 390 kts 140°
2026-05-06 22:28 38.30078 23.37029 19756 ft 387 kts 140°
2026-05-06 22:29 38.28017 23.39217 19275 ft 384 kts 140°
2026-05-06 22:29 38.25969 23.41389 18787 ft 382 kts 140°
2026-05-06 22:29 38.23937 23.43544 18289 ft 379 kts 140°
2026-05-06 22:29 38.21920 23.45681 17795 ft 377 kts 140°
2026-05-06 22:30 38.19820 23.47661 17288 ft 375 kts 149°
2026-05-06 22:30 38.17471 23.49059 16793 ft 372 kts 161°
2026-05-06 22:30 38.14962 23.49814 16304 ft 370 kts 173°
2026-05-06 22:30 38.12406 23.49914 15817 ft 367 kts 185°
2026-05-06 22:31 38.09894 23.49460 15350 ft 364 kts 189°
2026-05-06 22:31 38.07402 23.48942 14864 ft 362 kts 189°
2026-05-06 22:31 38.04958 23.48436 14397 ft 359 kts 189°
2026-05-06 22:31 38.02496 23.47928 13900 ft 358 kts 189°
2026-05-06 22:32 38.00049 23.47424 13424 ft 355 kts 189°
2026-05-06 22:32 37.97619 23.46927 12933 ft 353 kts 189°
2026-05-06 22:32 37.95204 23.46434 12444 ft 350 kts 189°
2026-05-06 22:32 37.92803 23.45946 11944 ft 348 kts 189°
2026-05-06 22:33 37.90424 23.45460 11448 ft 346 kts 189°
2026-05-06 22:33 37.88057 23.44977 10938 ft 343 kts 189°
2026-05-06 22:33 37.85709 23.44496 10502 ft 339 kts 189°
2026-05-06 22:33 37.83431 23.44032 10373 ft 325 kts 189°
2026-05-06 22:34 37.81244 23.43585 10244 ft 312 kts 189°
2026-05-06 22:34 37.79141 23.43154 10117 ft 301 kts 189°
2026-05-06 22:34 37.77106 23.42736 9910 ft 293 kts 189°
2026-05-06 22:34 37.75112 23.42335 9694 ft 288 kts 188°
2026-05-06 22:35 37.73119 23.42383 9355 ft 289 kts 167°
2026-05-06 22:35 37.71286 23.43401 8875 ft 291 kts 143°
2026-05-06 22:35 37.69933 23.45266 8444 ft 290 kts 120°
2026-05-06 22:35 37.69283 23.47650 8112 ft 286 kts 96°
2026-05-06 22:36 37.69389 23.50133 7746 ft 283 kts 77°
2026-05-06 22:36 37.69813 23.52505 7619 ft 271 kts 77°
2026-05-06 22:36 37.70209 23.54779 7491 ft 260 kts 77°
2026-05-06 22:36 37.70586 23.56961 7342 ft 250 kts 77°
2026-05-06 22:37 37.70949 23.59082 7086 ft 246 kts 77°
2026-05-06 22:37 37.71305 23.61163 6668 ft 249 kts 77°
2026-05-06 22:37 37.71680 23.63351 6100 ft 258 kts 78°
2026-05-06 22:37 37.72052 23.65539 5833 ft 253 kts 78°
2026-05-06 22:38 37.72418 23.67696 5503 ft 251 kts 78°
2026-05-06 22:38 37.72785 23.69844 5163 ft 249 kts 77°
2026-05-06 22:38 37.73147 23.71954 4974 ft 241 kts 77°
2026-05-06 22:38 37.73494 23.73978 4867 ft 230 kts 77°
2026-05-06 22:39 37.73884 23.75876 4771 ft 216 kts 66°
2026-05-06 22:39 37.74646 23.77422 4596 ft 203 kts 46°
2026-05-06 22:39 37.75693 23.78545 4375 ft 193 kts 36°
2026-05-06 22:39 37.76754 23.79542 4111 ft 188 kts 36°
2026-05-06 22:40 37.77792 23.80520 3865 ft 185 kts 36°
2026-05-06 22:40 37.78810 23.81482 3617 ft 181 kts 36°
2026-05-06 22:40 37.79808 23.82426 3388 ft 177 kts 36°
2026-05-06 22:40 37.80786 23.83352 3151 ft 174 kts 36°
2026-05-06 22:41 37.82597 23.85066 2727 ft 152 kts 36°
2026-05-06 22:41 37.83434 23.85859 2520 ft 149 kts 36°
2026-05-06 22:41 37.84257 23.86639 2328 ft 147 kts 36°
2026-05-06 22:42 37.85073 23.87414 2135 ft 146 kts 36°
2026-05-06 22:42 37.85890 23.88179 1942 ft 146 kts 35°
2026-05-06 22:42 37.86707 23.88937 1762 ft 146 kts 36°
2026-05-06 22:42 37.87522 23.89695 1586 ft 145 kts 36°
2026-05-06 22:43 37.88329 23.90463 1419 ft 145 kts 36°
2026-05-06 22:43 37.89117 23.91229 1200 ft 145 kts 37°
2026-05-06 22:43 37.89913 23.91998 977 ft 144 kts 35°
2026-05-06 22:43 37.90719 23.92743 807 ft 143 kts 34°
2026-05-06 22:44 37.91521 23.93492 585 ft 143 kts 36°
2026-05-06 22:44 37.92301 23.94262 379 ft 142 kts 36°
2026-05-06 22:44 37.92853 23.94794 304 ft 140 kts 36°
2026-05-06 22:44 37.93524 23.95423 294 ft 84 kts 36°
2026-05-06 22:45 37.93805 23.95681 294 ft 36 kts 24°
2026-05-06 22:45 37.94040 23.95741 298 ft 33 kts
2026-05-06 22:45 37.94226 23.95823 300 ft 27 kts 45°
2026-05-06 22:45 37.94369 23.95836 302 ft 23 kts 277°
2026-05-06 22:46 37.94325 23.95695 301 ft 12 kts 301°
2026-05-06 22:46 37.94316 23.95621 302 ft 0 kts 207°